Location: George Washington National Forest Helicopter Landing Site
(38.6463°N, 79.0851°W)
Time: 04:04:49
(UTC-04:00)

Tiros 1 despin weight - Pass Details

Date: 22 August 2019
Orbit: 594 x 643 km, 48.2° (Epoch: 16 October)

Event Time Altitude Azimuth Distance (km) Brightness Sun altitude
Rises 06:12:08 0° 303° (WNW) 2,884 ? -5.4°
Reaches altitude 10° 06:14:27 10° 306° (NW) 1,985 ? -4.9°
Maximum altitude 06:19:00 68° 29° (NNE) 676 ? -4.1°
Drops below altitude 10° 06:23:36 10° 113° (ESE) 2,007 ? -3.2°
Sets 06:25:57 0° 116° (ESE) 2,919 ? -2.8°
